London-Corbin, KY

6:11 AM EST on December 08, 2019 (GMT -0500)
London-Corbin / McKee

Weather History for KLOZ - June, 2019

Change the Weather History Date:

Thursday, June 13, 2019

  Actual Average Record
Temperature  
Mean Temperature 63 °F 72 °F  
Max Temperature 72 °F 83 °F 92 °F (1958)
Min Temperature 53 °F 62 °F 47 °F (1985)
Degree Days  
Heating Degree Days 2 0  
Month to date heating degree days 6 7  
Since 1 June heating degree days 6 7  
Since 1 July heating degree days 4030 4203  
Cooling Degree Days 0 8  
Month to date cooling degree days 66 82  
Year to date cooling degree days 244 196  
Since 1 June cooling degree days 66 82  
Growing Degree Days 14 (Base 50)    
Moisture  
Dew Point 56 °F    
Average Humidity 69    
Maximum Humidity 100    
Minimum Humidity 37    
Precipitation  
Precipitation 0.00 in 0.15 in 1.23 in (1977)
Month to date precipitation 3.60 1.99  
Sea Level Pressure  
Sea Level Pressure 29.90 in    
Wind  
Wind Speed 10 mph (SW)    
Max Wind Speed 24 mph    
Max Gust Speed 38 mph    
Visibility 10 miles    
Events Rain , Thunderstorm    
T = Trace of Precipitation, MM = Missing Value Source: NWS Daily Summary

Daily Weather History Graph

Daily Weather History Graph

Search for Another Location

Airport or City:

Astronomy

Jun. 13, 2019 Rise Set
Actual Time 6:15 AM EDT 8:57 PM EDT
Civil Twilight 5:45 AM EDT 9:27 PM EDT
Nautical Twilight 5:06 AM EDT 10:06 PM EDT
Astronomical Twilight 4:23 AM EDT 10:49 PM EDT
Moon 5:16 PM EDT (6/13) 3:54 AM EDT (6/13)
Length of Visible Light 15h 42m
Length of Day
14h 41m
Waxing Gibbous, 85% of the Moon is Illuminated
Jun 13
Waxing Gibbous
Jun 17
Full
Jun 25
Last Quarter
Jul 2
New
Jul 9
First Quarter

Hourly Weather History & Observations

Time (EDT) Temp. Dew Point Humidity Pressure Visibility Wind Dir Wind Speed Gust Speed Precip Events Conditions
12:07 AM 62.1 °F 62.1 °F 100% 29.87 in 7.0 mi SE 4.6 mph - 0.01 in Rain Light Rain
12:21 AM 62.1 °F 62.1 °F 100% 29.87 in 10.0 mi South 4.6 mph - 0.01 in   Overcast
12:46 AM 62.1 °F 62.1 °F 100% 29.87 in 10.0 mi SSW 4.6 mph - 0.01 in Thunderstorm Thunderstorm
12:53 AM 62.1 °F 62.1 °F 100% 29.84 in 10.0 mi South 3.5 mph - 0.01 in Thunderstorm Thunderstorm
1:00 AM 62.1 °F 62.1 °F 100% 29.86 in 10.0 mi SSW 3.5 mph - N/A   Overcast
1:14 AM 63.0 °F 63.0 °F 100% 29.86 in 10.0 mi South 4.6 mph - N/A   Overcast
1:22 AM 63.0 °F 63.0 °F 100% 29.86 in 10.0 mi South 4.6 mph - N/A   Overcast
1:53 AM 63.0 °F 63.0 °F 100% 29.83 in 10.0 mi South 4.6 mph - N/A   Overcast
2:09 AM 62.1 °F 62.1 °F 100% 29.86 in 10.0 mi South 5.8 mph - N/A   Overcast
2:23 AM 62.1 °F 62.1 °F 100% 29.85 in 10.0 mi South 6.9 mph - N/A   Overcast
2:38 AM 62.1 °F 61.0 °F 96% 29.85 in 10.0 mi South 5.8 mph - N/A   Mostly Cloudy
2:51 AM 60.8 °F 60.8 °F 100% 29.84 in 10.0 mi South 3.5 mph - N/A   Partly Cloudy
2:53 AM 61.0 °F 61.0 °F 100% 29.82 in 10.0 mi South 3.5 mph - N/A   Partly Cloudy
3:49 AM 60.8 °F 60.8 °F 100% 29.84 in 8.0 mi Calm Calm - N/A   Mostly Cloudy
3:53 AM 60.1 °F 60.1 °F 100% 29.82 in 8.0 mi SW 3.5 mph - N/A   Mostly Cloudy
3:59 AM 60.1 °F 60.1 °F 100% 29.84 in 6.0 mi SW 3.5 mph - N/A   Mostly Cloudy
4:53 AM 61.0 °F 61.0 °F 100% 29.82 in 10.0 mi SW 5.8 mph - N/A   Overcast
5:15 AM 61.0 °F 61.0 °F 100% 29.85 in 10.0 mi SW 4.6 mph - N/A   Overcast
5:53 AM 61.0 °F 60.1 °F 97% 29.83 in 10.0 mi SW 4.6 mph - N/A   Overcast
6:53 AM 60.1 °F 59.0 °F 96% 29.85 in 10.0 mi SW 8.1 mph - N/A   Overcast
7:53 AM 61.0 °F 57.0 °F 87% 29.86 in 10.0 mi West 12.7 mph - N/A   Clear
8:29 AM 60.1 °F 57.9 °F 93% 29.89 in 10.0 mi WSW 10.4 mph - N/A   Mostly Cloudy
8:37 AM 60.1 °F 57.0 °F 90% 29.90 in 10.0 mi WSW 12.7 mph 18.4 mph N/A   Overcast
8:53 AM 60.1 °F 57.9 °F 93% 29.88 in 10.0 mi WSW 10.4 mph - N/A   Overcast
9:29 AM 60.1 °F 57.0 °F 90% 29.91 in 10.0 mi WSW 15.0 mph 20.7 mph N/A   Overcast
9:53 AM 60.1 °F 55.9 °F 86% 29.90 in 10.0 mi West 15.0 mph 25.3 mph N/A   Overcast
10:05 AM 61.0 °F 55.9 °F 83% 29.92 in 10.0 mi West 15.0 mph 21.9 mph N/A   Overcast
10:53 AM 62.1 °F 55.0 °F 78% 29.91 in 10.0 mi West 15.0 mph - N/A   Overcast
11:51 AM 64.4 °F 53.6 °F 68% 29.94 in 10.0 mi West 16.1 mph 24.2 mph N/A   Mostly Cloudy
11:53 AM 64.9 °F 54.0 °F 68% 29.92 in 10.0 mi WSW 15.0 mph 24.2 mph N/A   Mostly Cloudy
12:53 PM 68.0 °F 50.0 °F 52% 29.92 in 10.0 mi West 19.6 mph 32.2 mph N/A   Partly Cloudy
1:53 PM 70.0 °F 50.0 °F 49% 29.93 in 10.0 mi West 19.6 mph 29.9 mph N/A   Scattered Clouds
2:53 PM 69.1 °F 48.9 °F 49% 29.95 in 10.0 mi West 16.1 mph 26.5 mph N/A   Mostly Cloudy
3:53 PM 69.1 °F 46.9 °F 45% 29.96 in 10.0 mi West 15.0 mph 28.8 mph N/A   Mostly Cloudy
4:53 PM 70.0 °F 45.0 °F 41% 29.96 in 10.0 mi WNW 19.6 mph 34.5 mph N/A   Partly Cloudy
5:53 PM 69.1 °F 46.0 °F 44% 29.99 in 10.0 mi WNW 13.8 mph 26.5 mph N/A   Scattered Clouds
6:53 PM 69.1 °F 43.0 °F 39% 30.00 in 10.0 mi West 17.3 mph 24.2 mph N/A   Partly Cloudy
7:53 PM 66.0 °F 45.0 °F 47% 30.02 in 10.0 mi West 9.2 mph - N/A   Partly Cloudy
8:53 PM 63.0 °F 45.0 °F 52% 30.04 in 10.0 mi West 6.9 mph - N/A   Clear
9:53 PM 59.0 °F 48.0 °F 67% 30.06 in 10.0 mi Calm Calm - N/A   Clear
10:53 PM 57.9 °F 48.0 °F 70% 30.09 in 10.0 mi Calm Calm - N/A   Mostly Cloudy
11:53 PM 54.0 °F 50.0 °F 86% 30.12 in 10.0 mi Calm Calm - N/A   Scattered Clouds